Medicine Hat, Alberta

10:31 AM MDT on August 30, 2016 (GMT -0600)
Medicine Hat

Weather History for CYXH - March, 2013

Change the Weather History Date:

Friday, March 1, 2013

  Actual Average Record
Temperature  
Mean Temperature 2 °F -  
Max Temperature 55 °F 40 °F 55 °F (2013)
Min Temperature -52 °F 19 °F -52 °F (2013)
Degree Days  
Heating Degree Days 64    
Moisture  
Dew Point 18 °F    
Average Humidity 60    
Maximum Humidity 87    
Minimum Humidity 35    
Precipitation  
Precipitation 0.00 in 0.02 in - ()
Sea Level Pressure  
Sea Level Pressure 30.14 in    
Wind  
Wind Speed 8 mph ()    
Max Wind Speed 20 mph    
Max Gust Speed 29 mph    
Visibility 10.6 miles    
Events      
Averages and records for this station are not official NWS values.
T = Trace of Precipitation, MM = Missing Value Source: Averaged Metar Reports

Daily Weather History Graph

Daily Weather History Graph

Search for Another Location

Airport or City:

Trip Planner

Search our weather history database for the weather conditions in past years. The results will help you decide how hot, cold, wet, or windy it might be!

Date:

Astronomy

Mar. 01, 2013 Rise Set
Actual Time 7:05 AM MST 6:05 PM MST
Civil Twilight 6:33 AM MST 6:38 PM MST
Nautical Twilight 5:55 AM MST 7:15 PM MST
Astronomical Twilight 5:18 AM MST 7:53 PM MST
Moon 11:16 PM MST (3/1) 8:25 AM MST (3/1)
Length of Visible Light 12h 05m
Length of Day
11h 00m
Waning Gibbous, 83% of the Moon is Illuminated
Mar 1
Waning Gibbous
Mar 4
Last Quarter
Mar 11
New
Mar 19
First Quarter
Mar 27
Full

Hourly Weather History & Observations

Time (MST) Temp. Windchill Dew Point Humidity Pressure Visibility Wind Dir Wind Speed Gust Speed Precip Events Conditions
12:00 AM 32.0 °F 23.6 °F 24.8 °F 75% 30.15 in 9.0 mi South 10.4 mph - N/A   Clear
1:00 AM 33.8 °F 26.4 °F 24.8 °F 70% 30.13 in 9.0 mi South 9.2 mph - N/A   Overcast
2:00 AM 33.8 °F 27.7 °F 24.8 °F 70% 30.09 in 9.0 mi South 6.9 mph - N/A   Mostly Cloudy
3:00 AM 37.4 °F 28.9 °F 26.6 °F 65% 30.08 in 9.0 mi South 13.8 mph - N/A   Mostly Cloudy
4:00 AM 35.6 °F 29.9 °F 26.6 °F 70% 30.06 in 9.0 mi South 6.9 mph - N/A   Mostly Cloudy
5:00 AM -50 °F - -59 °F 35% 30.48 in - NNW 3.5 mph - -  
6:00 AM 33.8 °F 28.6 °F 28.4 °F 81% 30.06 in 15.0 mi SW 5.8 mph - N/A   Mostly Cloudy
7:00 AM 33.8 °F 30.8 °F 28.4 °F 81% 30.08 in 30.0 mi WSW 3.5 mph - N/A   Mostly Cloudy
8:00 AM 35.6 °F 28.0 °F 30.2 °F 81% 30.07 in 30.0 mi SW 10.4 mph - N/A   Mostly Cloudy
9:00 AM 42.8 °F 37.5 °F 32.0 °F 66% 30.07 in 30.0 mi SSW 9.2 mph - N/A   Scattered Clouds
10:00 AM 46.4 °F 41.1 °F 33.8 °F 62% 30.07 in 30.0 mi SW 11.5 mph - N/A   Mostly Cloudy
11:00 AM -50 °F - -59 °F 35% 30.51 in - NNW 2.3 mph - -  
11:00 AM 50.0 °F - 35.6 °F 58% 30.07 in 30.0 mi SSW 12.7 mph - N/A   Mostly Cloudy
12:00 PM 51.8 °F - 35.6 °F 54% 30.04 in 30.0 mi SSW 13.8 mph - N/A   Mostly Cloudy
1:00 PM 57.2 °F - 35.6 °F 44% 30.02 in 30.0 mi NW 8.1 mph - N/A   Scattered Clouds
2:00 PM 55.4 °F - 35.6 °F 47% 30.02 in 30.0 mi NE 5.8 mph - N/A   Scattered Clouds
3:00 PM 57.2 °F - 33.8 °F 41% 30.01 in 30.0 mi Calm Calm - N/A   Scattered Clouds
4:00 PM 59.0 °F - 35.6 °F 42% 30.00 in 30.0 mi SSW 6.9 mph - N/A   Scattered Clouds
5:00 PM -52 °F - -61 °F 36% 30.63 in - North 1.2 mph - -  
5:00 PM 55.4 °F - 35.6 °F 47% 30.00 in 30.0 mi WSW 15.0 mph - N/A   Scattered Clouds
6:00 PM 46.4 °F 42.9 °F 37.4 °F 71% 30.04 in 30.0 mi SW 6.9 mph - N/A   Scattered Clouds
7:00 PM 42.8 °F 36.6 °F 33.8 °F 70% 30.04 in 15.0 mi SW 11.5 mph - N/A   Scattered Clouds
8:00 PM 46.4 °F 39.0 °F 35.6 °F 66% 30.04 in 15.0 mi WSW 19.6 mph 28.8 mph N/A   Scattered Clouds
9:00 PM 44.6 °F 39.2 °F 33.8 °F 66% 30.06 in 9.0 mi WSW 10.4 mph 18.4 mph N/A   Clear
10:00 PM 41.0 °F 34.3 °F 33.8 °F 76% 30.07 in 9.0 mi SSW 11.5 mph - N/A   Clear
11:00 PM -52 °F - -61 °F 35% 30.75 in - South 8.1 mph - -  
11:00 PM 37.4 °F 30.8 °F 33.8 °F 87% 30.08 in 9.0 mi SW 9.2 mph - N/A   Clear